,,,PA_Meas_PMT16A,,PR_Meas_QMR101_102,,RH_Meas_QMH101,,SR_Meas_QMS101,,TA_Meas_QMH101,,GenWind,,GenWind,
date,time,status,PA,status,PR,status,RH,status,SR,status,TA,status,DirAvg,status,SpdAvg,
2010-12-26, 00:00:04,VALID,1000.21,VALID,0,VALID,96.6655,VALID,0,VALID,25.1423,VALID,345,VALID,2.52227,
2010-12-26, 00:01:04,VALID,1000.21,VALID,0,VALID,96.5282,VALID,0,VALID,25.1832,VALID,353,VALID,1.60469,
2010-12-26, 00:02:04,VALID,1000.17,VALID,0,VALID,96.4748,VALID,0,VALID,25.2221,VALID,356,VALID,0.925781,
2010-12-26, 00:03:04,VALID,1000.19,VALID,0,VALID,96.3604,VALID,0,VALID,25.2202,VALID,337,VALID,0.965234,
2010-12-26, 00:04:04,VALID,1000.21,VALID,0,VALID,96.574,VALID,0,VALID,25.2416,VALID,355,VALID,1.12109,
2010-12-26, 00:05:04,VALID,1000.18,VALID,0,VALID,96.4672,VALID,0,VALID,25.2416,VALID,351,VALID,1.58086,
2010-12-26, 00:06:04,VALID,1000.18,VALID,0,VALID,96.4672,VALID,0,VALID,25.2397,VALID,346,VALID,0.777734,
2010-12-26, 00:07:04,VALID,1000.18,VALID,0,VALID,96.6427,VALID,0,VALID,25.2611,VALID,338,VALID,0.957812,
2010-12-26, 00:08:04,VALID,1000.18,VALID,0,VALID,96.6579,VALID,0,VALID,25.2416,VALID,345,VALID,0.441406,
2010-12-26, 00:09:04,VALID,1000.15,VALID,0,VALID,96.5511,VALID,0,VALID,25.2825,VALID,272,VALID,0.881641,
2010-12-26, 00:10:04,VALID,1000.15,VALID,0,VALID,96.8181,VALID,0,VALID,25.2611,VALID,354,VALID,0.386328,
2010-12-26, 00:11:04,VALID,1000.14,VALID,0,VALID,96.7418,VALID,0,VALID,25.2397,VALID,339,VALID,0.858594,
2010-12-26, 00:12:04,VALID,1000.15,VALID,0,VALID,96.9249,VALID,0,VALID,25.2416,VALID,343,VALID,1.075,
2010-12-26, 00:13:04,VALID,1000.2,VALID,0,VALID,96.8334,VALID,0,VALID,25.2611,VALID,354,VALID,0.857031,
2010-12-26, 00:14:04,VALID,1000.18,VALID,0,VALID,96.9326,VALID,0,VALID,25.2397,VALID,336,VALID,0.292969,
2010-12-26, 00:15:04,VALID,1000.2,VALID,0,VALID,97.0317,VALID,0,VALID,25.2806,VALID,283,VALID,0.220313,
2010-12-26, 00:16:04,VALID,1000.25,VALID,0,VALID,97.0699,VALID,0,VALID,25.2397,VALID,304,VALID,0.437109,
2010-12-26, 00:17:04,VALID,1000.23,VALID,0,VALID,97.047,VALID,0,VALID,25.2397,VALID,356,VALID,0.6875,
2010-12-26, 00:18:04,VALID,1000.26,VALID,0,VALID,97.1996,VALID,0,VALID,25.2611,VALID,108,VALID,0.600391,
2010-12-26, 00:19:04,VALID,1000.28,VALID,0,VALID,97.2987,VALID,0,VALID,25.2806,VALID,333,VALID,0.533203,
2010-12-26, 00:20:04,VALID,1000.27,VALID,0,VALID,96.8792,VALID,0,VALID,25.2397,VALID,288,VALID,0.985937,
2010-12-26, 00:21:04,VALID,1000.27,VALID,0,VALID,96.8258,VALID,0,VALID,25.3,VALID,350,VALID,0.664844,
2010-12-26, 00:22:04,VALID,1000.31,VALID,0,VALID,96.5664,VALID,0,VALID,25.2981,VALID,307,VALID,0.577734,
2010-12-26, 00:23:04,VALID,1000.3,VALID,0,VALID,96.3222,VALID,0,VALID,25.3176,VALID,276,VALID,0.587891,
2010-12-26, 00:24:04,VALID,1000.31,VALID,0,VALID,96.9249,VALID,0,VALID,25.2786,VALID,276,VALID,0.165234,
2010-12-26, 00:25:04,VALID,1000.31,VALID,0,VALID,97.5658,VALID,0,VALID,25.2786,VALID,223,VALID,0.299609,
2010-12-26, 00:26:04,VALID,1000.34,VALID,0,VALID,97.7641,VALID,0,VALID,25.2397,VALID,223,VALID,0.0214844,
2010-12-26, 00:27:04,VALID,1000.37,VALID,0,VALID,98.0998,VALID,0,VALID,25.2202,VALID,223,VALID,0.348437,
2010-12-26, 00:28:04,VALID,1000.34,VALID,0,VALID,98.5804,VALID,0,VALID,25.1832,VALID,223,VALID,0.136719,
2010-12-26, 00:29:04,VALID,1000.34,VALID,0,VALID,98.7864,VALID,0,VALID,25.1229,VALID,223,VALID,0.152344,
2010-12-26, 00:30:04,VALID,1000.35,VALID,0,VALID,98.9084,VALID,0,VALID,25.0839,VALID,223,VALID,0.0796875,
2010-12-26, 00:31:04,VALID,1000.32,VALID,0,VALID,99.267,VALID,0.100563,VALID,25.0431,VALID,223,VALID,0,
2010-12-26, 00:32:04,VALID,1000.31,VALID,0,VALID,99.1144,VALID,0,VALID,25.0255,VALID,223,VALID,0,
2010-12-26, 00:33:04,VALID,1000.3,VALID,0,VALID,99.3585,VALID,0,VALID,25.006,VALID,223,VALID,0.276172,
2010-12-26, 00:34:04,VALID,1000.28,VALID,0,VALID,99.6255,VALID,0,VALID,24.9866,VALID,223,VALID,0,
2010-12-26, 00:35:04,VALID,1000.27,VALID,0,VALID,99.534,VALID,0,VALID,24.9671,VALID,223,VALID,0,
2010-12-26, 00:36:04,VALID,1000.24,VALID,0,VALID,99.5493,VALID,0,VALID,24.9476,VALID,223,VALID,0.149219,
2010-12-26, 00:37:04,VALID,1000.25,VALID,0,VALID,99.6484,VALID,0,VALID,24.9495,VALID,260,VALID,0.241406,
2010-12-26, 00:38:04,VALID,1000.25,VALID,0,VALID,99.7629,VALID,0,VALID,24.9476,VALID,260,VALID,0.210938,
2010-12-26, 00:39:04,VALID,1000.25,VALID,0,VALID,100.274,VALID,0,VALID,24.9476,VALID,315,VALID,0.542969,
2010-12-26, 00:40:04,VALID,1000.24,VALID,0,VALID,100.038,VALID,0.100563,VALID,24.9476,VALID,330,VALID,0.35625,
2010-12-26, 00:41:04,VALID,1000.24,VALID,0,VALID,99.7476,VALID,0,VALID,24.9671,VALID,359,VALID,1.05273,
2010-12-26, 00:42:04,VALID,1000.23,VALID,0,VALID,99.0381,VALID,0,VALID,25.045,VALID,13,VALID,1.12227,
2010-12-26, 00:43:04,VALID,1000.23,VALID,0,VALID,98.7406,VALID,0.100563,VALID,25.1229,VALID,354,VALID,1.0082,
2010-12-26, 00:44:04,VALID,1000.26,VALID,0,VALID,98.4812,VALID,0,VALID,25.2007,VALID,15,VALID,0.633203,
2010-12-26, 00:45:04,VALID,1000.27,VALID,0,VALID,98.321,VALID,0,VALID,25.2007,VALID,357,VALID,0.867969,
2010-12-26, 00:46:04,VALID,1000.26,VALID,0,VALID,98.3668,VALID,0,VALID,25.2611,VALID,27,VALID,0.863281,
2010-12-26, 00:47:04,VALID,1000.23,VALID,0,VALID,98.0006,VALID,0,VALID,25.2397,VALID,32,VALID,0.802344,
2010-12-26, 00:48:04,VALID,1000.22,VALID,0,VALID,97.9701,VALID,0.100563,VALID,25.2202,VALID,29,VALID,1.27813,
2010-12-26, 00:49:04,VALID,1000.17,VALID,0,VALID,98.3286,VALID,0,VALID,25.1618,VALID,42,VALID,0.639844,
2010-12-26, 00:50:04,VALID,1000.17,VALID,0,VALID,98.527,VALID,0,VALID,25.1423,VALID,15,VALID,1.01172,
2010-12-26, 00:51:04,VALID,1000.11,VALID,0,VALID,98.2218,VALID,0,VALID,25.1637,VALID,24,VALID,1.10781,
2010-12-26, 00:52:04,VALID,1000.07,VALID,0,VALID,98.2676,VALID,0,VALID,25.1229,VALID,25,VALID,0.38125,
2010-12-26, 00:53:04,VALID,1000.08,VALID,0,VALID,98.382,VALID,0,VALID,25.1229,VALID,355,VALID,1.21016,
2010-12-26, 00:54:04,VALID,1000,VALID,0,VALID,98.3286,VALID,0,VALID,25.1423,VALID,31,VALID,0.807813,
2010-12-26, 00:55:05,VALID,999.961,VALID,0,VALID,97.909,VALID,0,VALID,25.1813,VALID,1,VALID,1.14492,
2010-12-26, 00:56:05,VALID,999.96,VALID,0,VALID,97.4513,VALID,0.100563,VALID,25.2397,VALID,9,VALID,0.848828,
2010-12-26, 00:57:05,VALID,999.932,VALID,0,VALID,97.3903,VALID,0,VALID,25.2592,VALID,28,VALID,1.05859,
2010-12-26, 00:58:05,VALID,999.89,VALID,0,VALID,97.5124,VALID,0,VALID,25.2378,VALID,16,VALID,0.520703,
2010-12-26, 00:59:05,VALID,999.83,VALID,0,VALID,97.5276,VALID,0.100563,VALID,25.2397,VALID,344,VALID,0.4375,
2010-12-26, 01:00:05,VALID,999.808,VALID,0,VALID,97.4895,VALID,0,VALID,25.2397,VALID,20,VALID,0.976563,
2010-12-26, 01:01:05,VALID,999.764,VALID,0,VALID,97.7794,VALID,0,VALID,25.2397,VALID,12,VALID,0.725391,
2010-12-26, 01:02:05,VALID,999.754,VALID,0,VALID,97.5124,VALID,0,VALID,25.2202,VALID,11,VALID,0.640234,
2010-12-26, 01:03:05,VALID,999.71,VALID,0,VALID,97.2987,VALID,0,VALID,25.2397,VALID,355,VALID,0.707812,
2010-12-26, 01:04:05,VALID,999.716,VALID,0,VALID,97.4666,VALID,0,VALID,25.2592,VALID,357,VALID,0.252344,
2010-12-26, 01:05:05,VALID,999.705,VALID,0,VALID,97.6344,VALID,0.100563,VALID,25.2397,VALID,357,VALID,0.423438,
2010-12-26, 01:06:05,VALID,999.719,VALID,0,VALID,97.2606,VALID,0,VALID,25.2397,VALID,341,VALID,0.936328,
2010-12-26, 01:07:05,VALID,999.697,VALID,0,VALID,97.4742,VALID,0.100563,VALID,25.2202,VALID,360,VALID,0.767578,
2010-12-26, 01:08:05,VALID,999.69,VALID,0,VALID,97.848,VALID,0,VALID,25.2397,VALID,359,VALID,0.498047,
2010-12-26, 01:09:05,VALID,999.634,VALID,0,VALID,97.9472,VALID,0,VALID,25.1813,VALID,360,VALID,0.530859,
2010-12-26, 01:10:05,VALID,999.635,VALID,0,VALID,98.3058,VALID,0,VALID,25.1423,VALID,1,VALID,0.634375,
2010-12-26, 01:11:05,VALID,999.607,VALID,0,VALID,98.8856,VALID,0,VALID,25.1248,VALID,2,VALID,0.316406,
2010-12-26, 01:12:05,VALID,999.638,VALID,0,VALID,98.9237,VALID,0,VALID,25.0255,VALID,36,VALID,0.940234,
2010-12-26, 01:13:05,VALID,999.604,VALID,0,VALID,99.122,VALID,0,VALID,24.9671,VALID,25,VALID,0.824609,
2010-12-26, 01:14:05,VALID,999.601,VALID,0,VALID,99.267,VALID,0,VALID,24.9671,VALID,2,VALID,0.843359,
2010-12-26, 01:15:05,VALID,999.599,VALID,0,VALID,99.2975,VALID,0,VALID,24.9885,VALID,20,VALID,0.855078,
2010-12-26, 01:16:05,VALID,999.593,VALID,0,VALID,98.6262,VALID,0,VALID,25.0274,VALID,39,VALID,1.46445,
2010-12-26, 01:17:05,VALID,999.622,VALID,0,VALID,98.4888,VALID,0.100563,VALID,25.0858,VALID,25,VALID,1.28125,
2010-12-26, 01:18:05,VALID,999.634,VALID,0,VALID,98.4736,VALID,0,VALID,25.0644,VALID,30,VALID,0.825391,
2010-12-26, 01:19:05,VALID,999.648,VALID,0,VALID,98.7253,VALID,0,VALID,25.0644,VALID,31,VALID,0.831641,
2010-12-26, 01:20:05,VALID,999.641,VALID,0,VALID,98.7559,VALID,0,VALID,25.0644,VALID,10,VALID,1.4332,
2010-12-26, 01:21:05,VALID,999.612,VALID,0,VALID,98.733,VALID,0,VALID,25.0255,VALID,25,VALID,0.757422,
2010-12-26, 01:22:05,VALID,999.646,VALID,0,VALID,98.5499,VALID,0,VALID,25.0663,VALID,26,VALID,1.1832,
2010-12-26, 01:23:05,VALID,999.658,VALID,0,VALID,98.2676,VALID,0,VALID,25.1034,VALID,17,VALID,1.0375,
2010-12-26, 01:24:05,VALID,999.639,VALID,0,VALID,97.4208,VALID,0,VALID,25.1813,VALID,10,VALID,1.82734,
2010-12-26, 01:25:05,VALID,999.626,VALID,0,VALID,97.2606,VALID,0.100563,VALID,25.2378,VALID,38,VALID,0.948828,
2010-12-26, 01:26:05,VALID,999.613,VALID,0,VALID,97.2225,VALID,0,VALID,25.2572,VALID,354,VALID,0.940234,
2010-12-26, 01:27:05,VALID,999.612,VALID,0,VALID,96.8181,VALID,0,VALID,25.2786,VALID,10,VALID,1.83867,
2010-12-26, 01:28:05,VALID,999.587,VALID,0,VALID,96.4062,VALID,0,VALID,25.2767,VALID,14,VALID,1.42891,
2010-12-26, 01:29:05,VALID,999.591,VALID,0,VALID,96.0323,VALID,0,VALID,25.3584,VALID,4,VALID,1.75195,
2010-12-26, 01:30:05,VALID,999.578,VALID,0,VALID,95.5365,VALID,0,VALID,25.376,VALID,345,VALID,1.0043,
2010-12-26, 01:31:05,VALID,999.575,VALID,0,VALID,95.7348,VALID,0,VALID,25.3565,VALID,356,VALID,1.26328,
2010-12-26, 01:32:05,VALID,999.574,VALID,0,VALID,95.9484,VALID,0,VALID,25.3565,VALID,6,VALID,1.24297,
2010-12-26, 01:33:05,VALID,999.572,VALID,0,VALID,96.0095,VALID,0,VALID,25.3176,VALID,2,VALID,1.40859,
2010-12-26, 01:34:05,VALID,999.556,VALID,0,VALID,96.4519,VALID,0,VALID,25.2981,VALID,5,VALID,1.44805,
2010-12-26, 01:35:05,VALID,999.533,VALID,0,VALID,96.5053,VALID,0,VALID,25.3,VALID,4,VALID,1.23398,
2010-12-26, 01:36:05,VALID,999.523,VALID,0,VALID,96.8029,VALID,0,VALID,25.2806,VALID,354,VALID,1.06328,
2010-12-26, 01:37:05,VALID,999.471,VALID,0,VALID,96.9249,VALID,0,VALID,25.2221,VALID,356,VALID,0.655859,
2010-12-26, 01:38:05,VALID,999.462,VALID,0,VALID,96.9554,VALID,0,VALID,25.1599,VALID,357,VALID,0.782031,
2010-12-26, 01:39:05,VALID,999.446,VALID,0,VALID,97.2911,VALID,0,VALID,25.1637,VALID,348,VALID,0.6125,
2010-12-26, 01:40:05,VALID,999.411,VALID,0,VALID,97.1919,VALID,0,VALID,25.1034,VALID,6,VALID,1.05195,
2010-12-26, 01:41:05,VALID,999.385,VALID,0,VALID,97.3445,VALID,0,VALID,25.0839,VALID,344,VALID,0.632422,
2010-12-26, 01:42:05,VALID,999.402,VALID,0,VALID,97.7336,VALID,0,VALID,25.045,VALID,352,VALID,0.644922,
2010-12-26, 01:43:05,VALID,999.363,VALID,0,VALID,97.52,VALID,0,VALID,25.006,VALID,355,VALID,0.729688,
2010-12-26, 01:44:05,VALID,999.349,VALID,0,VALID,97.9853,VALID,0,VALID,24.9866,VALID,356,VALID,0.751172,
2010-12-26, 01:45:05,VALID,999.353,VALID,0,VALID,98.2142,VALID,0,VALID,24.9885,VALID,359,VALID,0.379687,
2010-12-26, 01:46:05,VALID,999.319,VALID,0,VALID,98.2905,VALID,0,VALID,24.9282,VALID,335,VALID,0.494531,
2010-12-26, 01:47:05,VALID,999.348,VALID,0,VALID,98.4812,VALID,0,VALID,24.93,VALID,353,VALID,0.785156,
2010-12-26, 01:48:05,VALID,999.322,VALID,0,VALID,98.4812,VALID,0,VALID,24.8892,VALID,353,VALID,0.55625,
2010-12-26, 01:49:05,VALID,999.329,VALID,0,VALID,98.3897,VALID,0,VALID,24.8697,VALID,13,VALID,0.944531,
2010-12-26, 01:50:05,VALID,999.299,VALID,0,VALID,98.7101,VALID,0,VALID,24.8716,VALID,353,VALID,0.591016,
2010-12-26, 01:51:05,VALID,999.267,VALID,0,VALID,98.6948,VALID,0.100563,VALID,24.8503,VALID,4,VALID,0.953125,
2010-12-26, 01:52:05,VALID,999.255,VALID,0,VALID,98.7482,VALID,0,VALID,24.8113,VALID,5,VALID,0.426562,
2010-12-26, 01:53:05,VALID,999.256,VALID,0,VALID,98.4507,VALID,0.100563,VALID,24.7919,VALID,353,VALID,0.930078,
2010-12-26, 01:54:05,VALID,999.289,VALID,0,VALID,98.5804,VALID,0,VALID,24.7919,VALID,338,VALID,0.983984,
2010-12-26, 01:55:05,VALID,999.25,VALID,0,VALID,98.8016,VALID,0.100563,VALID,24.79,VALID,355,VALID,0.158984,
2010-12-26, 01:56:05,VALID,999.3,VALID,0,VALID,98.4278,VALID,0.100563,VALID,24.7919,VALID,354,VALID,1.38594,
2010-12-26, 01:57:05,VALID,999.297,VALID,0,VALID,98.5346,VALID,0.100563,VALID,24.8113,VALID,303,VALID,0.473828,
2010-12-26, 01:58:05,VALID,999.231,VALID,0,VALID,98.199,VALID,0,VALID,24.8113,VALID,300,VALID,0.793359,
2010-12-26, 01:59:05,VALID,999.264,VALID,0,VALID,98.2066,VALID,0,VALID,24.8113,VALID,302,VALID,0.425781,
2010-12-26, 02:00:05,VALID,999.247,VALID,0,VALID,98.4278,VALID,0,VALID,24.8095,VALID,324,VALID,0.543359,
2010-12-26, 02:01:05,VALID,999.247,VALID,0,VALID,98.3286,VALID,0,VALID,24.8113,VALID,358,VALID,0.594141,
2010-12-26, 02:02:05,VALID,999.244,VALID,0,VALID,98.1303,VALID,0.100563,VALID,24.8095,VALID,27,VALID,0.875,
2010-12-26, 02:03:05,VALID,999.239,VALID,0,VALID,98.1455,VALID,0.100563,VALID,24.8308,VALID,14,VALID,0.478906,
2010-12-26, 02:04:05,VALID,999.21,VALID,0,VALID,97.9701,VALID,0,VALID,24.8308,VALID,342,VALID,1.13945,
2010-12-26, 02:05:05,VALID,999.172,VALID,0,VALID,97.8633,VALID,0.100563,VALID,24.8716,VALID,259,VALID,0.811328,
2010-12-26, 02:06:05,VALID,999.165,VALID,0,VALID,97.6573,VALID,0,VALID,24.8697,VALID,360,VALID,1.28984,
2010-12-26, 02:07:05,VALID,999.198,VALID,0,VALID,97.6192,VALID,0,VALID,24.93,VALID,5,VALID,0.73125,
2010-12-26, 02:08:05,VALID,999.147,VALID,0,VALID,97.5658,VALID,0,VALID,24.9495,VALID,347,VALID,0.828125,
2010-12-26, 02:09:05,VALID,999.132,VALID,0,VALID,97.2377,VALID,0,VALID,24.9866,VALID,349,VALID,1.55898,
2010-12-26, 02:10:05,VALID,999.125,VALID,0,VALID,97.2682,VALID,0,VALID,25.0274,VALID,353,VALID,1.30742,
2010-12-26, 02:11:05,VALID,999.103,VALID,0,VALID,97.0394,VALID,0,VALID,25.006,VALID,355,VALID,1.80977,
2010-12-26, 02:12:05,VALID,999.113,VALID,0,VALID,97.1309,VALID,0,VALID,25.0663,VALID,356,VALID,1.03711,
2010-12-26, 02:13:05,VALID,999.117,VALID,0,VALID,97.1996,VALID,0.100563,VALID,25.045,VALID,341,VALID,0.951953,
2010-12-26, 02:14:05,VALID,999.104,VALID,0,VALID,97.0317,VALID,0.100563,VALID,25.0255,VALID,356,VALID,0.815234,
2010-12-26, 02:15:05,VALID,999.085,VALID,0,VALID,97.2835,VALID,0,VALID,25.0255,VALID,354,VALID,0.608984,
2010-12-26, 02:16:05,VALID,999.06,VALID,0,VALID,97.1919,VALID,0.100563,VALID,24.9652,VALID,344,VALID,1.56445,
2010-12-26, 02:17:05,VALID,999.039,VALID,0,VALID,97.0851,VALID,0,VALID,25.0274,VALID,352,VALID,1.11016,
2010-12-26, 02:18:05,VALID,998.986,VALID,0,VALID,97.1309,VALID,0,VALID,25.0274,VALID,354,VALID,1.19531,
2010-12-26, 02:19:05,VALID,998.994,VALID,0,VALID,97.3369,VALID,0,VALID,24.9866,VALID,341,VALID,1.30898,
2010-12-26, 02:20:05,VALID,999.021,VALID,0,VALID,97.4284,VALID,0,VALID,25.0079,VALID,17,VALID,1.62891,
2010-12-26, 02:21:05,VALID,998.967,VALID,0,VALID,97.7107,VALID,0.100563,VALID,24.9866,VALID,349,VALID,1.28242,
2010-12-26, 02:22:05,VALID,998.994,VALID,0,VALID,97.9777,VALID,0.100563,VALID,24.9652,VALID,345,VALID,0.759766,
2010-12-26, 02:23:05,VALID,998.986,VALID,0,VALID,97.7717,VALID,0.100563,VALID,24.9866,VALID,345,VALID,0.955859,
2010-12-26, 02:24:05,VALID,998.947,VALID,0,VALID,97.848,VALID,0,VALID,24.9671,VALID,22,VALID,1.94492,
2010-12-26, 02:25:05,VALID,998.946,VALID,0,VALID,97.4971,VALID,0,VALID,24.9885,VALID,356,VALID,1.31797,
2010-12-26, 02:26:05,VALID,998.967,VALID,0,VALID,97.4284,VALID,0,VALID,24.9671,VALID,359,VALID,1.22891,
2010-12-26, 02:27:05,VALID,998.98,VALID,0,VALID,97.2987,VALID,0,VALID,24.9885,VALID,20,VALID,1.68164,
2010-12-26, 02:28:05,VALID,998.919,VALID,0,VALID,97.047,VALID,0,VALID,24.9866,VALID,38,VALID,1.57305,
2010-12-26, 02:29:05,VALID,998.963,VALID,0,VALID,96.986,VALID,0,VALID,24.9671,VALID,6,VALID,1.35586,
2010-12-26, 02:30:05,VALID,998.97,VALID,0,VALID,96.9783,VALID,0,VALID,24.9866,VALID,356,VALID,1.30078,
2010-12-26, 02:31:05,VALID,999.005,VALID,0,VALID,96.902,VALID,0,VALID,25.0293,VALID,340,VALID,1.11719,
2010-12-26, 02:32:05,VALID,999.048,VALID,0,VALID,97.108,VALID,0,VALID,24.9671,VALID,342,VALID,0.764844,
2010-12-26, 02:33:05,VALID,999.023,VALID,0,VALID,97.2987,VALID,0,VALID,24.969,VALID,356,VALID,0.564062,
2010-12-26, 02:34:05,VALID,999.063,VALID,0,VALID,97.3598,VALID,0,VALID,24.9495,VALID,357,VALID,0.708594,
2010-12-26, 02:35:05,VALID,999.068,VALID,0,VALID,97.5047,VALID,0,VALID,24.9282,VALID,338,VALID,0.499609,
2010-12-26, 02:36:05,VALID,999.07,VALID,0,VALID,97.5505,VALID,0,VALID,24.9106,VALID,320,VALID,0.811719,
2010-12-26, 02:37:05,VALID,999.111,VALID,0,VALID,97.7336,VALID,0,VALID,24.8892,VALID,344,VALID,0.553906,
2010-12-26, 02:38:05,VALID,999.108,VALID,0,VALID,97.9167,VALID,0,VALID,24.8892,VALID,357,VALID,0.381641,
2010-12-26, 02:39:05,VALID,999.128,VALID,0,VALID,97.9777,VALID,0,VALID,24.8716,VALID,284,VALID,0.668359,
2010-12-26, 02:40:05,VALID,999.144,VALID,0,VALID,98.4278,VALID,0,VALID,24.8503,VALID,277,VALID,0.586328,
2010-12-26, 02:41:05,VALID,999.167,VALID,0,VALID,98.3439,VALID,0,VALID,24.8327,VALID,286,VALID,0.753516,
2010-12-26, 02:42:05,VALID,999.155,VALID,0,VALID,98.6872,VALID,0,VALID,24.8113,VALID,243,VALID,0.36875,
2010-12-26, 02:43:05,VALID,999.168,VALID,0,VALID,98.5575,VALID,0,VALID,24.7919,VALID,257,VALID,0.301953,
2010-12-26, 02:44:05,VALID,999.197,VALID,0,VALID,98.466,VALID,0,VALID,24.7937,VALID,352,VALID,0.254687,
2010-12-26, 02:45:05,VALID,999.133,VALID,0,VALID,98.3897,VALID,0,VALID,24.7937,VALID,344,VALID,0.808984,
2010-12-26, 02:46:05,VALID,999.131,VALID,0,VALID,98.0387,VALID,0,VALID,24.7743,VALID,355,VALID,0.747266,
2010-12-26, 02:47:05,VALID,999.097,VALID,0,VALID,98.4049,VALID,0,VALID,24.7529,VALID,249,VALID,0.883594,
2010-12-26, 02:48:05,VALID,999.129,VALID,0,VALID,98.3286,VALID,0,VALID,24.7529,VALID,291,VALID,1.01094,
2010-12-26, 02:49:05,VALID,999.121,VALID,0,VALID,98.2447,VALID,0,VALID,24.7743,VALID,334,VALID,1.55352,
2010-12-26, 02:50:05,VALID,999.095,VALID,0,VALID,97.9396,VALID,0,VALID,24.7743,VALID,323,VALID,0.455078,
2010-12-26, 02:51:05,VALID,999.05,VALID,0,VALID,97.9777,VALID,0,VALID,24.7937,VALID,291,VALID,1.42695,
2010-12-26, 02:52:05,VALID,999.063,VALID,0,VALID,98.1303,VALID,0,VALID,24.7529,VALID,323,VALID,0.635547,
2010-12-26, 02:53:05,VALID,999.036,VALID,0,VALID,98.3363,VALID,0,VALID,24.7529,VALID,271,VALID,0.424219,
2010-12-26, 02:54:05,VALID,999.032,VALID,0,VALID,98.4431,VALID,0,VALID,24.7335,VALID,291,VALID,1.70586,
2010-12-26, 02:55:05,VALID,999.067,VALID,0,VALID,98.5041,VALID,0,VALID,24.7548,VALID,310,VALID,0.557422,
2010-12-26, 02:56:05,VALID,999.053,VALID,0,VALID,98.8856,VALID,0,VALID,24.7335,VALID,313,VALID,0.340234,
2010-12-26, 02:57:05,VALID,999.033,VALID,0,VALID,99.1297,VALID,0,VALID,24.7159,VALID,318,VALID,0.140625,
2010-12-26, 02:58:05,VALID,999.063,VALID,0,VALID,99.3585,VALID,0,VALID,24.6964,VALID,240,VALID,0.510938,
2010-12-26, 02:59:05,VALID,999.054,VALID,0,VALID,99.6713,VALID,0,VALID,24.6769,VALID,251,VALID,0.416016,
2010-12-26, 03:00:05,VALID,999.059,VALID,0,VALID,99.9841,VALID,0,VALID,24.6361,VALID,253,VALID,0.425391,
2010-12-26, 03:01:05,VALID,999.094,VALID,0,VALID,100.129,VALID,0,VALID,24.5972,VALID,235,VALID,0.246094,
2010-12-26, 03:02:05,VALID,999.059,VALID,0,VALID,100.678,VALID,0,VALID,24.5796,VALID,235,VALID,0.237891,
2010-12-26, 03:03:05,VALID,999.106,VALID,0,VALID,101.342,VALID,0,VALID,24.5601,VALID,235,VALID,0.136719,
2010-12-26, 03:04:05,VALID,999.125,VALID,0,VALID,101.838,VALID,0,VALID,24.5406,VALID,233,VALID,0.566406,
2010-12-26, 03:05:05,VALID,999.175,VALID,0,VALID,102.921,VALID,0,VALID,24.5017,VALID,233,VALID,0.594922,
2010-12-26, 03:06:05,VALID,999.183,VALID,0,VALID,104,VALID,0,VALID,24.4628,VALID,234,VALID,0.296484,
2010-12-26, 03:07:05,VALID,999.198,VALID,0,VALID,104,VALID,0,VALID,24.4628,VALID,234,VALID,0.338672,
2010-12-26, 03:08:05,VALID,999.227,VALID,0,VALID,104,VALID,0,VALID,24.4025,VALID,296,VALID,0.275781,
2010-12-26, 03:09:05,VALID,999.197,VALID,0,VALID,104,VALID,0,VALID,24.4043,VALID,294,VALID,0.574219,
2010-12-26, 03:10:05,VALID,999.208,VALID,0,INVALID,109.345,VALID,0,VALID,24.383,VALID,295,VALID,0.227344,
2010-12-26, 03:11:05,VALID,999.231,VALID,0,INVALID,111.092,VALID,0,VALID,24.3636,VALID,295,VALID,0.234375,
2010-12-26, 03:12:05,VALID,999.207,VALID,0,INVALID,113.029,VALID,0,VALID,24.3441,VALID,295,VALID,0.139453,
2010-12-26, 03:13:05,VALID,999.217,VALID,0,INVALID,115.181,VALID,0,VALID,24.3033,VALID,254,VALID,0.342578,
2010-12-26, 03:14:05,VALID,999.2,VALID,0,INVALID,115.646,VALID,0,VALID,24.3052,VALID,254,VALID,0.137109,
2010-12-26, 03:15:05,VALID,999.207,VALID,0,INVALID,117.752,VALID,0,VALID,24.3265,VALID,254,VALID,0.0328125,
2010-12-26, 03:16:05,VALID,999.207,VALID,0,INVALID,132.91,VALID,0,VALID,24.3265,VALID,254,VALID,0.166406,
2010-12-26, 03:17:05,VALID,999.218,VALID,0,INVALID,139.342,VALID,0,VALID,24.2662,VALID,254,VALID,0,
2010-12-26, 03:18:05,VALID,999.228,VALID,0,INVALID,140.669,VALID,0,VALID,24.2468,VALID,254,VALID,0,
2010-12-26, 03:19:05,VALID,999.234,VALID,0,INVALID,146.879,VALID,0,VALID,24.2273,VALID,254,VALID,0,
2010-12-26, 03:20:05,VALID,999.252,VALID,0,INVALID,163.655,VALID,0,VALID,24.2486,VALID,254,VALID,0.0601562,
2010-12-26, 03:21:05,VALID,999.229,VALID,0,INVALID,163.655,VALID,0,VALID,24.2273,VALID,254,VALID,0.108203,
2010-12-26, 03:22:05,VALID,999.262,VALID,0,INVALID,163.701,VALID,0,VALID,24.2291,VALID,254,VALID,0.0289063,
2010-12-26, 03:23:05,VALID,999.233,VALID,0,INVALID,163.678,VALID,0,VALID,24.1884,VALID,254,VALID,0,
2010-12-26, 03:24:05,VALID,999.179,VALID,0,INVALID,163.67,VALID,0,VALID,24.1689,VALID,254,VALID,0,
2010-12-26, 03:25:05,VALID,999.195,VALID,0,INVALID,163.701,VALID,0,VALID,24.1494,VALID,254,VALID,0,
2010-12-26, 03:26:05,VALID,999.167,VALID,0,INVALID,163.693,VALID,0,VALID,24.13,VALID,254,VALID,0,
2010-12-26, 03:27:05,VALID,999.148,VALID,0,INVALID,163.678,VALID,0,VALID,24.1105,VALID,254,VALID,0,
2010-12-26, 03:28:05,VALID,999.102,VALID,0,INVALID,163.693,VALID,0,VALID,24.1123,VALID,254,VALID,0.0179687,
2010-12-26, 03:29:05,VALID,999.091,VALID,0,INVALID,163.701,VALID,0,VALID,24.0929,VALID,255,VALID,0.104297,
2010-12-26, 03:30:05,VALID,999.096,VALID,0,INVALID,163.701,VALID,0,VALID,24.0521,VALID,255,VALID,0.327344,
2010-12-26, 03:31:05,VALID,999.069,VALID,0,INVALID,163.708,VALID,0,VALID,24.0326,VALID,255,VALID,0.330078,
2010-12-26, 03:32:05,VALID,999.058,VALID,0,INVALID,163.693,VALID,0,VALID,24.0326,VALID,255,VALID,0.164063,
2010-12-26, 03:33:05,VALID,999.057,VALID,0,INVALID,163.708,VALID,0,VALID,24.0539,VALID,340,VALID,0.439453,
2010-12-26, 03:34:04,VALID,999.07,VALID,0,INVALID,163.723,VALID,0,VALID,24.0734,VALID,13,VALID,0.450391,
2010-12-26, 03:35:04,VALID,999.067,VALID,0,INVALID,163.693,VALID,0,VALID,24.091,VALID,16,VALID,0.466797,
2010-12-26, 03:36:04,VALID,999.043,VALID,0,INVALID,163.678,VALID,0,VALID,24.1494,VALID,341,VALID,1.41133,
2010-12-26, 03:37:04,VALID,999.041,VALID,0,INVALID,163.693,VALID,0,VALID,24.2662,VALID,357,VALID,0.945313,
2010-12-26, 03:38:04,VALID,999.093,VALID,0,INVALID,163.685,VALID,0,VALID,24.4043,VALID,342,VALID,1.3332,
2010-12-26, 03:39:04,VALID,999.055,VALID,0,INVALID,163.647,VALID,0,VALID,24.4998,VALID,351,VALID,1.77227,
2010-12-26, 03:40:04,VALID,999.078,VALID,0,INVALID,147.398,VALID,0,VALID,24.6574,VALID,2,VALID,1.29922,
2010-12-26, 03:41:04,VALID,999.059,VALID,0,INVALID,127.746,VALID,0,VALID,24.6945,VALID,356,VALID,1.31758,
2010-12-26, 03:42:04,VALID,999.085,VALID,0,INVALID,117.233,VALID,0,VALID,24.7529,VALID,4,VALID,1.13281,
2010-12-26, 03:43:04,VALID,999.084,VALID,0,INVALID,113.174,VALID,0,VALID,24.8113,VALID,326,VALID,0.866016,
2010-12-26, 03:44:04,VALID,999.099,VALID,0,INVALID,111.466,VALID,0,VALID,24.8113,VALID,358,VALID,0.998047,